Tracking 19574 objects as of 16-Feb-2019
HD Live streaming from Space Station
objects crossing your sky now

TANSEI 3 DEB

Track TANSEI 3 DEB now!
10-day predictions


NORAD ID: 9982
Int'l Code: 1977-012F
Perigee: 786.8 km
Apogee: 3,758.6 km
Inclination: 65.9 °
Period: 133.3 minutes
Semi major axis: 8643 km
RCS: 0.0721 m2 (small)
Launch date: February 19, 1977
Source: Japan (JPN)
Launch site: KAGOSHIMA SPACE CENTER UNIVERSITY OF TOKYO (KSCUT)

Note: This is SATELLITE DEBRIS
aabbcc
Your satellite tracking list
Your tracking list is empty




NASA's NSSDC Master Catalog

Two Line Element Set (TLE):
1  9982U 77012F   19046.21513413  .00000163  00000-0  51391-3 0  9997
2  9982  65.8976  99.9808 1719043 353.1772   4.8209 10.80315351657061
Source of the keplerian elements: AFSPC